[[{"header":{"parameterUnit":"m.s-1","parameterCategory":2,"la1":30.2991,"la2":30.254,"lo1":-89.0895,"lo2":-89.0444,"dy":0.0017,"dx":0.0017,"nx":28,"ny":28,"refTime":"2024-04-03T09:00:00:Z","depth":"0","parameterNumber":2,"parameterNumberName":"U-component_of_CURRENTS"},"data":[0,0,0,0,0,0,0,0,0,0,0,0,0,0,0,0,0,0,0,0,0,0,0,0,0,0,0,0,0,0,0,0,0,0,0,0,0,0,0,0,0,0,0,0,0,0,0,0,0,0,0,0,0,0,0,0,0,0,0.3617,0.3617,0,0.3639,0.3639,0.3639,0.3624,0.3624,0.3623,0.3623,0.3608,0.3608,0.3608,0,0,0,0,0,0,0,0,0,0,0,0,0,0.3566,0.3566,0.3617,0.3617,0.3618,0.3639,0.3639,0.3639,0.3624,0.3624,0.3623,0.3622,0.3608,0.3608,0.3608,0,0,0,0,0,0,0,0,0,0,0,0,0,0.3585,0.3567,0.3617,0.3615,0.3615,0.3639,0.3639,0.3639,0.3624,0.3623,0.3623,0.3622,0.3608,0.3608,0.3608,0.3622,0,0,0.3608,0.3609,0,0,0,0,0,0,0,0,0.3584,0.3587,0.3615,0.3615,0.3615,0.3631,0.3616,0.3633,0.3624,0.3618,0.3623,0.3622,0.3615,0.3614,0.3616,0.3622,0.3621,0.3608,0.3609,0.3609,0.3609,0,0,0,0,0,0,0,0.3583,0.3586,0.3623,0.3615,0.3616,0.3615,0.3616,0.3619,0.3617,0.3618,0.3618,0.3625,0.3614,0.3616,0.3616,0.3621,0.3608,0.3609,0.3609,0.3609,0.3682,0.3684,0,0,0,0,0,0,0.3586,0.3585,0.3622,0.3624,0.3601,0.3616,0.3618,0.3624,0.3618,0.3617,0.3626,0.3624,0.3617,0.3616,0.3615,0.3664,0.3609,0.3609,0.3609,0.368,0.3683,0.3685,0,0,0,0,0,0,0.3585,0.3589,0.3622,0.3607,0.3611,0.3618,0.3625,0.3625,0.3635,0.3624,0.3622,0.3637,0.3616,0.3615,0.3637,0.3662,0.3609,0.3609,0.3678,0.3681,0.3684,0.374,0,0,0,0,0,0,0.3583,0.3589,0.3594,0.3607,0.3612,0.3648,0.3626,0.3626,0.3641,0.364,0.3633,0.363,0.3616,0.3637,0.3637,0.3661,0.3609,0.3676,0.3679,0.3683,0.3735,0.3744,0.3752,0,0,0,0,0,0.3581,0.3592,0.3594,0.3599,0.3619,0.3649,0.3652,0.3652,0.3643,0.3656,0.3656,0.3631,0.366,0.3639,0.3638,0.3662,0.3674,0.3678,0.3683,0.3732,0.3742,0.3751,0,0,0,0,0,0,0.3569,0.3592,0.3595,0.361,0.3635,0.3648,0.366,0.3662,0.3672,0.367,0.3653,0.3652,0.3682,0.367,0.3647,0.3698,0.3664,0.3668,0.3702,0.3712,0.3719,0.3744,0.3609,0,0,0,0,0,0.3571,0.3586,0.3611,0.3625,0.3639,0.3652,0.3664,0.3669,0.3681,0.3684,0.368,0.3683,0.37,0.3703,0.3712,0.3736,0.3751,0.3754,0.3762,0.3769,0.3791,0.3838,0.3852,0.3699,0.3699,0.3699,0,0,0.3568,0.3586,0.3592,0.3625,0.364,0.3667,0.3657,0.3684,0.3709,0.3682,0.3709,0.3712,0.3715,0.3745,0.3757,0.3736,0.3823,0.3774,0.378,0.3799,0.3844,0.3859,0.3872,0.3702,0.3701,0.3701,0,0,0.3576,0.3591,0.3608,0.3635,0.367,0.3683,0.3696,0.3719,0.3734,0.3762,0.3758,0.3785,0.3788,0.381,0.3817,0.3879,0.3867,0.3874,0.393,0.3974,0.3987,0.3999,0.4042,0.4057,0.3874,0.3874,0.3874,0,0.3573,0.3596,0.3619,0.365,0.3674,0.3693,0.3723,0.3748,0.3775,0.38,0.3777,0.3827,0.3825,0.3885,0.3909,0.3898,0.3919,0.3886,0.3984,0.3996,0.4007,0.4049,0.4065,0.3877,0.3877,0.3877,0.3876,0,0.3595,0.3619,0.3636,0.3679,0.3712,0.3741,0.3784,0.3818,0.3829,0.3851,0.3909,0.3916,0.3948,0.3953,0.3948,0.4031,0.402,0.399,0.3957,0.4026,0.4065,0.4081,0.3882,0.3881,0.388,0.3879,0,0,0.357,0.3637,0.3641,0.3663,0.373,0.3751,0.382,0.388,0.3924,0.395,0.4012,0.4047,0.4055,0.4069,0.4071,0.4112,0.4205,0.4089,0.409,0.4129,0.4311,0.4307,0.4323,0.4187,0.419,0.4192,0.4309,0,0.3578,0.3628,0.3667,0.3713,0.3741,0.3798,0.3856,0.3919,0.3968,0.4034,0.4074,0.4123,0.4098,0.412,0.4163,0.4203,0.4249,0.4177,0.4243,0.4246,0.423,0.4342,0.4293,0.4394,0.4324,0.4327,0.4329,0,0.3579,0.3616,0.3661,0.373,0.3749,0.3782,0.3881,0.394,0.4054,0.4097,0.4168,0.4199,0.4293,0.4244,0.4354,0.4309,0.4326,0.4342,0.4346,0.4337,0.4272,0.4314,0.4424,0.4397,0.4352,0.435,0.4348,0,0.3534,0.3604,0.3634,0.3659,0.3747,0.3785,0.384,0.3953,0.4031,0.415,0.422,0.4304,0.4373,0.4409,0.446,0.4414,0.4573,0.4502,0.4514,0.4513,0.4485,0.4477,0.4575,0.458,0.4579,0.4579,0.4579,0,0.352,0.3537,0.361,0.3625,0.3677,0.3753,0.3836,0.3912,0.4052,0.4147,0.4246,0.4343,0.442,0.4516,0.4518,0.4593,0.4621,0.4567,0.456,0.4503,0.4496,0.4479,0.4444,0.4583,0.4582,0.4582,0.4581,0,0.346,0.3507,0.3541,0.3625,0.3655,0.3693,0.3836,0.389,0.4042,0.4179,0.4229,0.4416,0.4545,0.4617,0.4708,0.4686,0.4641,0.4738,0.4673,0.4657,0.461,0.4579,0.4427,0.4281,0.4772,0.4773,0.4774,0,0.3433,0.3444,0.3524,0.3542,0.3576,0.3655,0.3703,0.3862,0.3944,0.4211,0.4266,0.4474,0.4596,0.4768,0.4795,0.4843,0.4684,0.4791,0.4689,0.4649,0.4609,0.4353,0.422,0.4675,0.4675,0.4675,0.4675,0,0.338,0.3403,0.343,0.3478,0.3515,0.3576,0.367,0.3748,0.3939,0.4085,0.4278,0.4415,0.4649,0.4726,0.4834,0.4833,0.4625,0.4788,0.477,0.4585,0.429,0.4132,0.4553,0.4674,0.4674,0.4674,0.4674,0.4674,0.3327,0.3331,0.3365,0.3397,0.3433,0.3468,0.3485,0.3615,0.3754,0.3943,0.4164,0.4341,0.4625,0.4797,0.4755,0.4764,0.4612,0.4695,0.4677,0.4429,0.424,0.4667,0.4756,0.4757,0.4757,0.4758,0.4758,0,0.3252,0.326,0.3282,0.33,0.3279,0.3347,0.3422,0.3427,0.3523,0.3784,0.3955,0.4305,0.4473,0.4633,0.4819,0.4728,0.4408,0.4624,0.429,0.4171,0.4625,0.458,0.4607,0.4607,0.4607,0.4607,0.4607,0.4607,0.3212,0.3189,0.3195,0.3133,0.3136,0.3079,0.3088,0.3135,0.3286,0.3513,0.3734,0.3982,0.4469,0.4834,0.4875,0.4739,0.438,0.4215,0.4096,0.4531,0.4535,0.4539,0.449,0.4498,0.4497,0.3482,0.3476,0.3471]},{"header":{"parameterUnit":"m.s-1","parameterCategory":2,"la1":30.2991,"la2":30.254,"lo1":-89.0895,"lo2":-89.0444,"dy":0.0017,"dx":0.0017,"nx":28,"ny":28,"refTime":"2024-04-03T09:00:00:Z","depth":"0","parameterNumber":3,"parameterNumberName":"V-component_of_CURRENTS"},"data":[0,0,0,0,0,0,0,0,0,0,0,0,0,0,0,0,0,0,0,0,0,0,0,0,0,0,0,0,0,0,0,0,0,0,0,0,0,0,0,0,0,0,0,0,0,0,0,0,0,0,0,0,0,0,0,0,0,0,0.0065,0.0064,0,-0.0002,-0.0003,-0.0004,-0.0053,-0.0054,-0.0054,-0.0054,-0.0144,-0.0146,-0.0148,0,0,0,0,0,0,0,0,0,0,0,0,0,0.008,0.008,0.0065,0.0064,0.0063,-0.0002,-0.0003,-0.0004,-0.0053,-0.0054,-0.0054,-0.0054,-0.0143,-0.0146,-0.0148,0,0,0,0,0,0,0,0,0,0,0,0,0,0.0048,0.008,0.0065,0.0032,0.0028,-0.0002,-0.0003,-0.0005,-0.0053,-0.0054,-0.0054,-0.0054,-0.0143,-0.0146,-0.0149,-0.0159,0,0,-0.0158,-0.016,0,0,0,0,0,0,0,0,0.005,0.0047,0.0038,0.0034,0.003,-0.0019,-0.0031,-0.0057,-0.0053,-0.0024,-0.0054,-0.0055,-0.0103,-0.0109,-0.0123,-0.0164,-0.0168,-0.0159,-0.0161,-0.0162,-0.0163,0,0,0,0,0,0,0,0.0052,0.0049,0.0037,0.0037,0.0032,-0.0003,-0.0008,-0.0036,-0.0062,-0.0026,-0.003,-0.0035,-0.0105,-0.012,-0.0125,-0.0169,-0.0159,-0.0162,-0.0163,-0.0165,-0.0227,-0.0227,0,0,0,0,0,0,0.0068,0.0052,0.0039,0.0035,0.0041,-0.0003,-0.0008,-0.0004,-0.0061,-0.0069,-0.0034,-0.0037,-0.0114,-0.0121,-0.0129,-0.0128,-0.0162,-0.0165,-0.0167,-0.0227,-0.0227,-0.0227,0,0,0,0,0,0,0.0068,0.0068,0.0042,0.0042,0.0037,-0.0002,0.0003,-0.0005,-0.0014,-0.0066,-0.0076,-0.0035,-0.0115,-0.0124,-0.0148,-0.0133,-0.0166,-0.0169,-0.0227,-0.0227,-0.0227,-0.0138,0,0,0,0,0,0,0.0069,0.0068,0.0075,0.0044,0.0037,0.0038,0.0003,-0.0006,-0.0016,-0.002,-0.007,-0.0079,-0.0116,-0.0143,-0.0151,-0.0138,-0.0172,-0.0228,-0.0227,-0.0227,-0.0141,-0.0135,-0.0129,0,0,0,0,0,0.007,0.0092,0.0076,0.0074,0.0049,0.0039,0.0032,0.0001,-0.0015,-0.0011,-0.0049,-0.0078,-0.0146,-0.0145,-0.0155,-0.0142,-0.0228,-0.0227,-0.0227,-0.0144,-0.0136,-0.0129,0,0,0,0,0,0,0.0102,0.0088,0.007,0.0085,0.0067,0.0031,0.0032,0.001,-0.0017,-0.0022,-0.0073,-0.0085,-0.0101,-0.0135,-0.0133,-0.0161,-0.0192,-0.0193,-0.0126,-0.0119,-0.0113,-0.0084,-0.0174,0,0,0,0,0,0.0112,0.0123,0.0099,0.0108,0.0104,0.0068,0.0059,0.004,0.0013,0.0,-0.0036,-0.0076,-0.0107,-0.0122,-0.0156,-0.0168,-0.0206,-0.0168,-0.0162,-0.0156,-0.0141,-0.0194,-0.0191,-0.0225,-0.0225,-0.0225,0,0,0.0126,0.0119,0.0123,0.0115,0.0097,0.0104,0.0062,0.0059,0.0066,-0.0005,-0.0007,-0.0054,-0.0106,-0.0121,-0.0131,-0.0146,-0.0167,-0.0156,-0.015,-0.0138,-0.0193,-0.019,-0.0187,-0.0224,-0.0224,-0.0224,0,0,0.0167,0.0154,0.0179,0.0173,0.0157,0.0134,0.0139,0.0111,0.0101,0.0086,0.0038,0.0004,-0.0044,-0.0075,-0.0099,-0.0079,-0.0134,-0.0093,-0.0037,-0.0088,-0.0086,-0.0084,-0.0125,-0.0128,-0.0089,-0.0089,-0.0089,0,0.0181,0.0212,0.0184,0.0207,0.0209,0.0156,0.0183,0.0166,0.0132,0.0131,0.0098,0.0026,-0.0021,-0.0036,-0.0033,-0.0063,-0.01,-0.0057,-0.0079,-0.0078,-0.0078,-0.012,-0.0124,-0.0085,-0.0085,-0.0086,-0.0086,0,0.0245,0.0265,0.0281,0.0291,0.0286,0.0302,0.0276,0.0278,0.0248,0.0217,0.0193,0.012,0.008,0.0054,0.0016,0.0002,-0.0028,-0.0065,-0.0092,-0.0068,-0.0116,-0.0121,-0.0078,-0.008,-0.0081,-0.0082,0,0,0.029,0.0321,0.0326,0.0352,0.0336,0.0346,0.0364,0.0364,0.0386,0.0322,0.0337,0.0258,0.0206,0.0177,0.0117,0.0069,0.0033,0.0012,0.0007,-0.0018,-0.0074,-0.01,-0.0109,-0.001,-0.001,-0.0011,-0.0107,0,0.0347,0.042,0.0409,0.0466,0.0503,0.0471,0.0497,0.0486,0.0455,0.0454,0.0369,0.0343,0.0256,0.0239,0.0177,0.0074,0.0022,0.0064,-0.0103,-0.0107,-0.0124,-0.0115,-0.0075,-0.0157,-0.0113,-0.0114,-0.0115,0,0.0414,0.0458,0.0531,0.0581,0.0593,0.0611,0.0645,0.0665,0.064,0.0616,0.056,0.0482,0.041,0.0328,0.0161,0.019,0.0072,-0.002,-0.0027,-0.0082,-0.0143,-0.0177,-0.017,-0.0443,-0.0124,-0.0123,-0.0122,0,0.0476,0.0541,0.0607,0.0622,0.0664,0.0696,0.0717,0.0713,0.0757,0.0717,0.0728,0.0602,0.0561,0.0392,0.0193,0.0176,0.0005,-0.0047,-0.0182,-0.0186,-0.0198,-0.0201,-0.0463,-0.0165,-0.0165,-0.0164,-0.0164,0,0.0547,0.06,0.0646,0.0685,0.0784,0.0775,0.0864,0.0871,0.089,0.0953,0.0818,0.0833,0.0574,0.0441,0.0239,0.002,0.0034,-0.0164,-0.0211,-0.0167,-0.0166,-0.0442,-0.0595,-0.0168,-0.0167,-0.0167,-0.0166,0,0.0607,0.0632,0.0721,0.0786,0.0819,0.089,0.0985,0.1048,0.1048,0.113,0.1126,0.1007,0.0831,0.0565,0.0293,0.01,-0.0275,-0.0206,-0.0132,-0.0168,-0.055,-0.0697,-0.0989,-0.1126,-0.0369,-0.037,-0.0371,0,0.0645,0.0697,0.0806,0.0873,0.0906,0.1013,0.1094,0.1132,0.121,0.1251,0.1304,0.1156,0.1095,0.0679,0.0292,-0.0068,-0.0321,-0.0272,-0.0305,-0.0564,-0.0764,-0.0867,-0.0969,-0.0289,-0.029,-0.029,-0.029,0,0.0721,0.0753,0.0831,0.0979,0.1073,0.1204,0.1322,0.1415,0.1477,0.1548,0.1616,0.157,0.1172,0.0816,0.0299,0.0045,-0.0467,-0.0288,-0.058,-0.0741,-0.0846,-0.1,-0.0237,-0.0292,-0.0291,-0.0291,-0.0291,-0.0291,0.0774,0.0848,0.0952,0.1093,0.1216,0.1382,0.1512,0.1643,0.1805,0.1957,0.1882,0.1904,0.1355,0.0656,0.0223,-0.0501,-0.0527,-0.0698,-0.0858,-0.0941,-0.1074,-0.031,-0.0407,-0.0407,-0.0408,-0.0408,-0.0408,0,0.0847,0.093,0.106,0.1232,0.1381,0.1439,0.1657,0.1806,0.2025,0.2188,0.2267,0.2076,0.136,0.0643,-0.035,-0.0936,-0.1151,-0.1262,-0.1412,-0.1493,-0.0826,-0.0824,-0.0985,-0.0985,-0.0985,-0.0985,-0.0984,-0.0984,0.0885,0.1019,0.109,0.1343,0.1471,0.1696,0.1836,0.2067,0.2257,0.2517,0.2614,0.2637,0.214,0.0169,-0.118,-0.151,-0.1934,-0.2024,-0.2277,-0.1836,-0.1796,-0.1757,-0.1793,-0.2155,-0.2156,-0.2843,-0.2851,-0.2856]}],[{"header":{"parameterUnit":"m.s-1","parameterCategory":2,"la1":30.2991,"la2":30.254,"lo1":-89.0895,"lo2":-89.0444,"dy":0.0017,"dx":0.0017,"nx":28,"ny":28,"refTime":"2024-04-03T09:00:00:Z","depth":"2","parameterNumber":2,"parameterNumberName":"U-component_of_CURRENTS"},"data":[0,0,0,0,0,0,0,0,0,0,0,0,0,0,0,0,0,0,0,0,0,0,0,0,0,0,0,0,0,0,0,0,0,0,0,0,0,0,0,0,0,0,0,0,0,0,0,0,0,0,0,0,0,0,0,0,0,0,0.3504,0.3505,0,0.3526,0.3526,0.3526,0.3515,0.3515,0.3514,0.3514,0.3503,0.3503,0.3503,0,0,0,0,0,0,0,0,0,0,0,0,0,0.3454,0.3455,0.3504,0.3505,0.3505,0.3526,0.3526,0.3526,0.3515,0.3515,0.3514,0.3514,0.3503,0.3503,0.3503,0,0,0,0,0,0,0,0,0,0,0,0,0,0.3473,0.3455,0.3504,0.3504,0.3505,0.3526,0.3526,0.3526,0.3515,0.3515,0.3514,0.3514,0.3503,0.3503,0.3503,0.3513,0,0,0.3503,0.3503,0,0,0,0,0,0,0,0,0.3472,0.3475,0.3504,0.3504,0.3505,0.352,0.3505,0.3521,0.3515,0.3508,0.3514,0.3513,0.3508,0.3507,0.3509,0.3512,0.3512,0.3503,0.3503,0.3503,0.3503,0,0,0,0,0,0,0,0.3471,0.3474,0.351,0.3504,0.3505,0.3504,0.3506,0.3508,0.3508,0.3509,0.3509,0.3516,0.3507,0.3509,0.3509,0.3512,0.3503,0.3503,0.3503,0.3503,0.3574,0.3576,0,0,0,0,0,0,0.3475,0.3473,0.3509,0.3511,0.349,0.3505,0.3507,0.3513,0.3508,0.3508,0.3516,0.3515,0.3509,0.3509,0.3508,0.3558,0.3503,0.3503,0.3503,0.3572,0.3574,0.3577,0,0,0,0,0,0,0.3473,0.3478,0.3509,0.3495,0.3499,0.3507,0.3514,0.3514,0.3526,0.3515,0.3513,0.3529,0.3509,0.3508,0.353,0.3555,0.3503,0.3503,0.357,0.3573,0.3576,0.3632,0,0,0,0,0,0,0.3472,0.3477,0.3483,0.3495,0.35,0.3534,0.3514,0.3515,0.3532,0.3531,0.3526,0.3523,0.3508,0.353,0.353,0.3554,0.3503,0.3568,0.3571,0.3575,0.3628,0.3636,0.3644,0,0,0,0,0,0.347,0.348,0.3483,0.3488,0.3508,0.3536,0.3538,0.354,0.3533,0.3547,0.3548,0.3524,0.3552,0.3532,0.3531,0.3556,0.3566,0.357,0.3574,0.3624,0.3635,0.3643,0,0,0,0,0,0,0.3459,0.3481,0.3484,0.35,0.3523,0.3535,0.3548,0.3551,0.3562,0.3561,0.3545,0.3544,0.3575,0.3563,0.354,0.359,0.3557,0.3561,0.3595,0.3605,0.3612,0.3637,0.3503,0,0,0,0,0,0.3462,0.3477,0.35,0.3514,0.3528,0.3541,0.3553,0.3559,0.3571,0.3575,0.3572,0.3575,0.3591,0.3595,0.3603,0.3627,0.3641,0.3645,0.3653,0.366,0.3682,0.3726,0.374,0.359,0.359,0.359,0,0,0.3459,0.3477,0.3483,0.3514,0.353,0.3555,0.3547,0.3574,0.3599,0.3572,0.3601,0.3604,0.3606,0.3636,0.3648,0.3628,0.3712,0.3665,0.3671,0.369,0.3732,0.3746,0.3759,0.3593,0.3593,0.3592,0,0,0.3468,0.3483,0.35,0.3526,0.3561,0.3573,0.3586,0.3609,0.3625,0.3653,0.3649,0.3677,0.368,0.37,0.3707,0.3768,0.3756,0.3764,0.3819,0.3861,0.3874,0.3885,0.3927,0.3942,0.3764,0.3764,0.3764,0,0.3466,0.3488,0.3511,0.3541,0.3564,0.3584,0.3613,0.3637,0.3664,0.369,0.3669,0.3718,0.3716,0.3773,0.3797,0.3786,0.3807,0.3777,0.3872,0.3883,0.3893,0.3934,0.3949,0.3767,0.3767,0.3767,0.3766,0,0.3488,0.3511,0.3528,0.357,0.3601,0.363,0.3671,0.3705,0.3719,0.374,0.3798,0.3805,0.3837,0.3841,0.3837,0.3918,0.3908,0.3877,0.3844,0.3912,0.395,0.3965,0.3772,0.3771,0.377,0.3769,0,0,0.3464,0.3528,0.3533,0.3554,0.3619,0.364,0.3706,0.3765,0.3809,0.3835,0.3896,0.3932,0.3942,0.3954,0.3956,0.3996,0.4088,0.3975,0.3976,0.4014,0.4191,0.4182,0.4196,0.407,0.4073,0.4075,0.4189,0,0.3472,0.352,0.3558,0.3602,0.3629,0.3685,0.3741,0.3803,0.3852,0.3915,0.3955,0.4005,0.3983,0.4006,0.4047,0.4086,0.413,0.4061,0.4124,0.4126,0.4106,0.4215,0.3858,0.393,0.4203,0.4205,0.4207,0,0.3474,0.3509,0.3553,0.3619,0.3637,0.367,0.3766,0.3824,0.3935,0.3978,0.4048,0.408,0.4172,0.4125,0.4233,0.419,0.4206,0.4221,0.4225,0.4211,0.4146,0.3906,0.3946,0.4232,0.423,0.4228,0.4226,0,0.3431,0.3498,0.3528,0.3552,0.3636,0.3674,0.3727,0.3839,0.3914,0.4032,0.41,0.4182,0.425,0.4286,0.4337,0.4292,0.4446,0.4376,0.4383,0.4381,0.4091,0.406,0.445,0.445,0.445,0.445,0.4449,0,0.3417,0.3435,0.3505,0.352,0.3572,0.3645,0.3727,0.3802,0.3938,0.403,0.4128,0.4221,0.4297,0.439,0.4392,0.4462,0.4492,0.4434,0.4426,0.4102,0.4073,0.4335,0.432,0.4454,0.4453,0.4452,0.4451,0,0.3361,0.3406,0.3439,0.3521,0.355,0.3589,0.3729,0.3782,0.3931,0.4064,0.4113,0.4294,0.4419,0.4489,0.4575,0.4552,0.4594,0.4597,0.4228,0.4176,0.4482,0.4469,0.4623,0.4624,0.4625,0.4625,0.4626,0,0.3335,0.3346,0.3424,0.3442,0.3476,0.3555,0.3602,0.3757,0.3836,0.4095,0.4147,0.4349,0.4458,0.4621,0.4594,0.4625,0.4662,0.4321,0.4179,0.4532,0.4508,0.4493,0.4479,0.3804,0.3798,0.3792,0.3788,0,0.3283,0.3307,0.3333,0.3381,0.3419,0.3476,0.3569,0.3643,0.3829,0.3965,0.4149,0.4273,0.4449,0.4351,0.4431,0.438,0.429,0.4226,0.4684,0.384,0.3776,0.3747,0.3757,0.3743,0.3748,0.3751,0.3754,0.3755,0.3233,0.3237,0.3271,0.3303,0.3338,0.337,0.3385,0.3491,0.3617,0.3745,0.3976,0.4021,0.4108,0.4055,0.3953,0.3862,0.4154,0.3945,0.3952,0.3967,0.3877,0.3821,0.3779,0.3783,0.3787,0.3791,0.3794,0,0.315,0.3168,0.3189,0.3207,0.3171,0.3253,0.3323,0.3278,0.3336,0.3487,0.3599,0.3382,0.3385,0.3443,0.3259,0.331,0.3178,0.316,0.2938,0.2991,0.3036,0.2888,0.2532,0.2528,0.2523,0.2519,0,0,0.3108,0.3078,0.3084,0.3015,0.3028,0.294,0.2947,0.2909,0.2952,0.2923,0.2925,0.3183,0.3363,0.2883,0.2863,0.2659,0.2772,0.2546,0.3574,0.3365,0.3403,0.3531,0.3372,0,0,0,0,0]},{"header":{"parameterUnit":"m.s-1","parameterCategory":2,"la1":30.2991,"la2":30.254,"lo1":-89.0895,"lo2":-89.0444,"dy":0.0017,"dx":0.0017,"nx":28,"ny":28,"refTime":"2024-04-03T09:00:00:Z","depth":"2","parameterNumber":3,"parameterNumberName":"V-component_of_CURRENTS"},"data":[0,0,0,0,0,0,0,0,0,0,0,0,0,0,0,0,0,0,0,0,0,0,0,0,0,0,0,0,0,0,0,0,0,0,0,0,0,0,0,0,0,0,0,0,0,0,0,0,0,0,0,0,0,0,0,0,0,0,0.0111,0.011,0,0.0045,0.0044,0.0044,-0.0006,-0.0006,-0.0006,-0.0007,-0.0095,-0.0097,-0.0099,0,0,0,0,0,0,0,0,0,0,0,0,0,0.0126,0.0126,0.0111,0.011,0.0109,0.0045,0.0044,0.0043,-0.0006,-0.0006,-0.0006,-0.0007,-0.0095,-0.0097,-0.0099,0,0,0,0,0,0,0,0,0,0,0,0,0,0.0094,0.0126,0.0111,0.0078,0.0075,0.0046,0.0044,0.0043,-0.0005,-0.0006,-0.0006,-0.0007,-0.0094,-0.0097,-0.01,-0.0109,0,0,-0.0109,-0.0111,0,0,0,0,0,0,0,0,0.0096,0.0094,0.0084,0.008,0.0077,0.0029,0.0017,-0.0009,-0.0005,0.0024,-0.0007,-0.0007,-0.0055,-0.0061,-0.0074,-0.0113,-0.0117,-0.0109,-0.0111,-0.0113,-0.0114,0,0,0,0,0,0,0,0.0099,0.0096,0.0084,0.0083,0.0079,0.0044,0.0039,0.0012,-0.0013,0.0021,0.0018,0.0013,-0.0057,-0.0071,-0.0076,-0.0118,-0.0109,-0.0112,-0.0114,-0.0115,-0.0175,-0.0175,0,0,0,0,0,0,0.0114,0.0099,0.0086,0.0082,0.0087,0.0044,0.0039,0.0043,-0.0013,-0.0021,0.0013,0.0011,-0.0065,-0.0073,-0.008,-0.0079,-0.0113,-0.0116,-0.0117,-0.0175,-0.0175,-0.0175,0,0,0,0,0,0,0.0114,0.0114,0.0088,0.0089,0.0083,0.0045,0.005,0.0042,0.0033,-0.0018,-0.0028,0.0012,-0.0066,-0.0075,-0.0098,-0.0084,-0.0117,-0.012,-0.0176,-0.0175,-0.0175,-0.0088,0,0,0,0,0,0,0.0115,0.0115,0.0121,0.009,0.0084,0.0085,0.005,0.0042,0.0031,0.0027,-0.0023,-0.0032,-0.0067,-0.0093,-0.0101,-0.0089,-0.0122,-0.0176,-0.0176,-0.0175,-0.0091,-0.0085,-0.0079,0,0,0,0,0,0.0116,0.0137,0.0122,0.012,0.0095,0.0086,0.0079,0.0048,0.0031,0.0036,-0.0002,-0.003,-0.0096,-0.0095,-0.0105,-0.0093,-0.0176,-0.0176,-0.0175,-0.0094,-0.0086,-0.008,0,0,0,0,0,0,0.0147,0.0133,0.0116,0.0131,0.0113,0.0078,0.0079,0.0057,0.003,0.0025,-0.0025,-0.0036,-0.0052,-0.0086,-0.0084,-0.011,-0.0141,-0.0143,-0.0077,-0.007,-0.0064,-0.0036,-0.0125,0,0,0,0,0,0.0157,0.0167,0.0144,0.0154,0.015,0.0114,0.0105,0.0086,0.0059,0.0047,0.0011,-0.0028,-0.0058,-0.0073,-0.0106,-0.0117,-0.0155,-0.0117,-0.0111,-0.0106,-0.0091,-0.0143,-0.014,-0.0173,-0.0173,-0.0173,0,0,0.017,0.0163,0.0168,0.016,0.0142,0.015,0.0108,0.0105,0.0112,0.0042,0.0039,-0.0007,-0.0057,-0.0071,-0.0081,-0.0096,-0.0117,-0.0105,-0.01,-0.0087,-0.0142,-0.0139,-0.0136,-0.0172,-0.0173,-0.0173,0,0,0.0211,0.0198,0.0223,0.0217,0.0201,0.0179,0.0184,0.0155,0.0145,0.0131,0.0084,0.005,0.0003,-0.0027,-0.0049,-0.003,-0.0084,-0.0044,0.0012,-0.0039,-0.0037,-0.0035,-0.0077,-0.0079,-0.0039,-0.0039,-0.0039,0,0.0225,0.0256,0.0227,0.025,0.0252,0.02,0.0227,0.021,0.0177,0.0176,0.0143,0.0072,0.0027,0.0012,0.0016,-0.0014,-0.0051,-0.0009,-0.003,-0.0029,-0.0029,-0.0072,-0.0076,-0.0035,-0.0036,-0.0036,-0.0036,0,0.0287,0.0307,0.0323,0.0333,0.0329,0.0344,0.0319,0.0321,0.0291,0.026,0.0236,0.0165,0.0126,0.0101,0.0063,0.0049,0.0019,-0.0016,-0.0043,-0.002,-0.0068,-0.0073,-0.0029,-0.003,-0.0032,-0.0033,0,0,0.0331,0.0363,0.0367,0.0394,0.0378,0.0388,0.0405,0.0405,0.0427,0.0364,0.0378,0.0301,0.0249,0.0221,0.0163,0.0115,0.0079,0.0059,0.0054,0.0028,-0.0029,-0.0056,-0.0065,0.0037,0.0036,0.0036,-0.0062,0,0.0388,0.046,0.0449,0.0506,0.0542,0.0511,0.0537,0.0526,0.0495,0.0493,0.0409,0.0384,0.0299,0.0281,0.022,0.0119,0.0067,0.0109,-0.0056,-0.006,-0.0079,-0.0071,-0.003,-0.0114,-0.0068,-0.0069,-0.007,0,0.0453,0.0497,0.057,0.0619,0.0631,0.0648,0.0682,0.0702,0.0676,0.0652,0.0597,0.0519,0.0448,0.0369,0.0203,0.0232,0.0115,0.0024,0.0018,-0.0038,-0.0098,-0.0132,-0.0127,-0.008,-0.0079,-0.0078,-0.0078,0,0.0514,0.0579,0.0643,0.0659,0.0701,0.0732,0.0753,0.0749,0.0791,0.0752,0.0761,0.0636,0.0596,0.0429,0.0232,0.0216,0.0046,-0.0004,-0.0139,-0.0143,-0.0154,-0.0157,-0.0121,-0.0121,-0.0121,-0.0121,-0.012,0,0.0584,0.0636,0.0682,0.0721,0.0818,0.081,0.0897,0.0904,0.0921,0.0982,0.0849,0.0863,0.0608,0.0475,0.0277,0.0059,0.0073,-0.0122,-0.0168,-0.0123,-0.0122,-0.0132,-0.0131,-0.0124,-0.0123,-0.0123,-0.0122,0,0.0643,0.0667,0.0756,0.082,0.0852,0.0923,0.1016,0.1077,0.1076,0.1156,0.1151,0.1032,0.0857,0.0594,0.0325,0.0136,-0.0083,-0.0166,-0.0092,-0.0128,-0.025,-0.0244,-0.0326,-0.0328,-0.0329,-0.033,-0.0331,0,0.0679,0.0731,0.0839,0.0905,0.0938,0.1043,0.1124,0.116,0.1236,0.1274,0.1325,0.1175,0.1109,0.0697,0.0318,-0.0037,-0.0087,-0.0234,-0.0264,-0.0233,-0.027,-0.0262,-0.0255,-0.0248,-0.0248,-0.0249,-0.0249,0,0.0754,0.0786,0.0863,0.101,0.1102,0.1232,0.1348,0.1438,0.1498,0.1562,0.1623,0.1572,0.1178,0.0813,0.0304,0.0069,-0.018,-0.025,-0.0238,-0.0199,-0.0167,-0.0201,-0.0195,-0.0251,-0.0251,-0.025,-0.025,-0.025,0.0807,0.0879,0.0982,0.1122,0.1243,0.1407,0.1534,0.1653,0.1806,0.1917,0.185,0.178,0.1355,0.0707,0.0264,-0.0209,-0.0181,-0.0337,-0.0333,-0.033,-0.03,-0.0272,-0.0369,-0.037,-0.037,-0.037,-0.0371,0,0.0878,0.096,0.1089,0.1259,0.1404,0.1463,0.1677,0.18,0.1995,0.2069,0.2111,0.1717,0.1288,0.0786,0.0086,-0.0316,-0.0339,-0.0441,-0.0385,-0.0378,-0.0374,-0.0345,-0.0428,-0.0429,-0.0431,-0.0432,0,0,0.0916,0.1048,0.1118,0.1365,0.1492,0.1706,0.1844,0.2021,0.213,0.2217,0.217,0.2053,0.1447,0.0931,0.0371,-0.0038,-0.0108,-0.0108,-0.0012,0.013,0.0139,-0.026,-0.0201,0,0,0,0,0]}],[{"header":{"parameterUnit":"m.s-1","parameterCategory":2,"la1":30.2991,"la2":30.254,"lo1":-89.0895,"lo2":-89.0444,"dy":0.0017,"dx":0.0017,"nx":28,"ny":28,"refTime":"2024-04-03T09:00:00:Z","depth":"4","parameterNumber":2,"parameterNumberName":"U-component_of_CURRENTS"},"data":[0,0,0,0,0,0,0,0,0,0,0,0,0,0,0,0,0,0,0,0,0,0,0,0,0,0,0,0,0,0,0,0,0,0,0,0,0,0,0,0,0,0,0,0,0,0,0,0,0,0,0,0,0,0,0,0,0,0,0.2203,0.2204,0,0.2288,0.2289,0.229,0.2362,0.2363,0.2364,0.2365,0.2468,0.247,0.2472,0,0,0,0,0,0,0,0,0,0,0,0,0,0.209,0.2091,0.2203,0.2204,0.2205,0.2288,0.2289,0.229,0.2362,0.2363,0.2364,0.2365,0.2468,0.247,0.2472,0,0,0,0,0,0,0,0,0,0,0,0,0,0.2151,0.2092,0.2202,0.2253,0.2258,0.2288,0.2289,0.229,0.2362,0.2363,0.2365,0.2366,0.2467,0.247,0.2472,0.2459,0,0,0.2481,0.2482,0,0,0,0,0,0,0,0,0.2148,0.2155,0.2244,0.2249,0.2256,0.2318,0.2287,0.2349,0.2361,0.232,0.2365,0.2367,0.242,0.2427,0.2436,0.2464,0.2469,0.2481,0.2483,0.2484,0.2485,0,0,0,0,0,0,0,0.2143,0.2152,0.2234,0.2245,0.2252,0.2267,0.2277,0.2299,0.2359,0.2324,0.233,0.2342,0.2423,0.2433,0.2439,0.247,0.2481,0.2483,0.2485,0.2486,0.2647,0.2649,0,0,0,0,0,0,0.2136,0.2148,0.2232,0.2237,0.2207,0.2268,0.228,0.2295,0.2359,0.237,0.2341,0.2345,0.2428,0.2436,0.2443,0.2567,0.2484,0.2486,0.2488,0.2644,0.2648,0.265,0,0,0,0,0,0,0.2134,0.2143,0.2228,0.2196,0.2208,0.2269,0.2285,0.2296,0.2357,0.2372,0.2384,0.2398,0.2429,0.2439,0.2514,0.2566,0.2488,0.249,0.2641,0.2645,0.2649,0.2727,0,0,0,0,0,0,0.213,0.2142,0.2173,0.2195,0.221,0.2279,0.2284,0.2296,0.2361,0.2369,0.2424,0.2432,0.2431,0.251,0.2517,0.2569,0.2492,0.2638,0.2643,0.2648,0.2722,0.2734,0.2744,0,0,0,0,0,0.2126,0.2153,0.2174,0.2185,0.2243,0.2281,0.2291,0.2336,0.2363,0.2396,0.2442,0.2433,0.2546,0.2515,0.2522,0.2575,0.2636,0.2642,0.2647,0.2717,0.2731,0.2744,0,0,0,0,0,0,0.2122,0.2164,0.2187,0.2228,0.227,0.2295,0.2338,0.2364,0.2426,0.2451,0.2463,0.2475,0.2559,0.2559,0.2524,0.2638,0.2591,0.2598,0.2641,0.2655,0.2666,0.2679,0.2494,0,0,0,0,0,0.2133,0.2172,0.2207,0.2249,0.2273,0.2316,0.2347,0.2379,0.2423,0.2454,0.2493,0.2538,0.2579,0.2613,0.2644,0.2705,0.2708,0.2746,0.2758,0.2767,0.2784,0.2828,0.2845,0.267,0.267,0.267,0,0,0.2144,0.2175,0.2199,0.2252,0.2291,0.2331,0.234,0.2403,0.2453,0.2454,0.2551,0.2581,0.2605,0.2676,0.2714,0.269,0.2821,0.2775,0.2782,0.2795,0.2836,0.2853,0.2868,0.2674,0.2673,0.2673,0,0,0.2167,0.2215,0.2251,0.229,0.2357,0.2379,0.2409,0.2466,0.2518,0.2594,0.2616,0.2684,0.2743,0.2776,0.2795,0.2888,0.2877,0.2905,0.2975,0.3018,0.3032,0.3045,0.3075,0.309,0.2912,0.2912,0.2912,0,0.2184,0.2227,0.2269,0.2312,0.2354,0.2406,0.2453,0.2503,0.2584,0.2633,0.2642,0.2762,0.2788,0.2871,0.2914,0.2914,0.2934,0.2917,0.3031,0.3044,0.3055,0.3084,0.3099,0.2917,0.2916,0.2916,0.2915,0,0.2215,0.2271,0.23,0.237,0.2421,0.2474,0.2539,0.261,0.2674,0.272,0.2836,0.2875,0.2946,0.2969,0.2975,0.308,0.3066,0.3036,0.2991,0.3077,0.3102,0.3116,0.2923,0.2922,0.292,0.2919,0,0,0.2191,0.23,0.2316,0.2359,0.246,0.2494,0.2597,0.2688,0.2763,0.2849,0.2943,0.3032,0.3069,0.3095,0.3117,0.3166,0.327,0.3154,0.3154,0.3175,0.3371,0.3165,0.316,0.3263,0.3266,0.3268,0.3356,0,0.2207,0.2287,0.2345,0.2433,0.2477,0.2567,0.265,0.2748,0.2838,0.2941,0.3014,0.3111,0.3111,0.3167,0.3218,0.3265,0.3312,0.3249,0.3293,0.3294,0.3093,0.3171,0.3277,0.3366,0.3369,0.3372,0.3373,0,0.2206,0.2265,0.2352,0.2466,0.2498,0.2566,0.2712,0.2798,0.295,0.3026,0.3136,0.3195,0.3317,0.3285,0.3408,0.3373,0.3392,0.3407,0.3409,0.3199,0.3114,0.3263,0.3399,0.3397,0.3395,0.3393,0.3392,0,0.2143,0.2263,0.2335,0.2376,0.2513,0.259,0.2681,0.2836,0.2933,0.3103,0.3187,0.3307,0.34,0.3445,0.3503,0.3475,0.3606,0.3553,0.3379,0.3365,0.3488,0.3473,0.3625,0.3624,0.3624,0.3624,0.3624,0,0.2108,0.2168,0.232,0.2356,0.2459,0.2575,0.271,0.2817,0.2992,0.3094,0.3239,0.3321,0.3452,0.3536,0.3546,0.3512,0.3642,0.3408,0.3377,0.352,0.3508,0.3498,0.3482,0.3627,0.3627,0.3626,0.3625,0,0.2019,0.2119,0.2207,0.237,0.2432,0.2513,0.2725,0.2802,0.2995,0.3136,0.3202,0.3389,0.3486,0.3573,0.366,0.3555,0.3545,0.3495,0.3666,0.364,0.3264,0.3252,0.3298,0.3291,0.3286,0.3281,0.3278,0,0.1974,0.2014,0.22,0.2258,0.2343,0.2489,0.2575,0.2785,0.2871,0.3136,0.3172,0.336,0.3448,0.3406,0.3511,0.3509,0.3463,0.3432,0.3324,0.3267,0.3234,0.323,0.3225,0.3269,0.3267,0.3266,0.3264,0,0.1885,0.1974,0.2046,0.2171,0.2275,0.2375,0.2524,0.2575,0.2797,0.2997,0.3065,0.3117,0.322,0.3268,0.3303,0.329,0.3434,0.3373,0.3383,0.3281,0.3233,0.3204,0.3206,0.3245,0.3248,0.325,0.3251,0,0.1824,0.1852,0.1963,0.2052,0.2169,0.2213,0.2319,0.241,0.2526,0.2806,0.282,0.3003,0.3182,0.3156,0.3184,0.3165,0.3103,0.2978,0.3007,0.303,0.29,0.2796,0.266,0,0,0,0,0,0.1746,0.1757,0.183,0.1907,0.2009,0.2079,0.2249,0.2355,0.2572,0.2543,0.2678,0.2749,0.2802,0.2905,0.2829,0.3069,0.3119,0.2967,0.2991,0.314,0.3162,0.3033,0,0,0,0,0,0,0.1691,0.1752,0.1774,0.1761,0.1781,0.1872,0.197,0.2119,0.2125,0.2355,0.24,0.2571,0.2668,0.2807,0.2769,0.2799,0.2754,0.3091,0.3083,0.3128,0.3148,0.3165,0.304,0,0,0,0,0]},{"header":{"parameterUnit":"m.s-1","parameterCategory":2,"la1":30.2991,"la2":30.254,"lo1":-89.0895,"lo2":-89.0444,"dy":0.0017,"dx":0.0017,"nx":28,"ny":28,"refTime":"2024-04-03T09:00:00:Z","depth":"4","parameterNumber":3,"parameterNumberName":"V-component_of_CURRENTS"},"data":[0,0,0,0,0,0,0,0,0,0,0,0,0,0,0,0,0,0,0,0,0,0,0,0,0,0,0,0,0,0,0,0,0,0,0,0,0,0,0,0,0,0,0,0,0,0,0,0,0,0,0,0,0,0,0,0,0,0,0.0181,0.018,0,0.0135,0.0135,0.0134,0.0101,0.0101,0.0101,0.0101,0.0032,0.003,0.0029,0,0,0,0,0,0,0,0,0,0,0,0,0,0.0194,0.0194,0.0181,0.018,0.018,0.0135,0.0135,0.0134,0.0101,0.0101,0.0101,0.0101,0.0033,0.0031,0.0029,0,0,0,0,0,0,0,0,0,0,0,0,0,0.0171,0.0194,0.0181,0.0159,0.0157,0.0135,0.0134,0.0134,0.0101,0.0101,0.0101,0.0101,0.0033,0.0031,0.0028,0.0018,0,0,0.0021,0.002,0,0,0,0,0,0,0,0,0.0173,0.0171,0.0163,0.016,0.0158,0.0124,0.0114,0.0094,0.0101,0.0121,0.0101,0.01,0.0062,0.0057,0.0048,0.0015,0.0012,0.0021,0.0019,0.0018,0.0017,0,0,0,0,0,0,0,0.0174,0.0172,0.0162,0.0162,0.0159,0.0136,0.0132,0.011,0.0092,0.0119,0.0117,0.0114,0.006,0.005,0.0046,0.0011,0.0021,0.0018,0.0017,0.0016,-0.0037,-0.0037,0,0,0,0,0,0,0.0185,0.0174,0.0163,0.016,0.0166,0.0136,0.0132,0.0135,0.0093,0.0087,0.0114,0.0113,0.0055,0.0049,0.0043,0.0042,0.0018,0.0016,0.0014,-0.0037,-0.0037,-0.0036,0,0,0,0,0,0,0.0185,0.0184,0.0165,0.0166,0.0162,0.0136,0.0139,0.0134,0.0128,0.0089,0.0082,0.0115,0.0054,0.0047,0.0029,0.0039,0.0015,0.0012,-0.0037,-0.0037,-0.0037,0.0031,0,0,0,0,0,0,0.0186,0.0185,0.0191,0.0168,0.0163,0.0162,0.0139,0.0133,0.0127,0.0124,0.0087,0.008,0.0053,0.0033,0.0026,0.0035,0.001,-0.0037,-0.0037,-0.0037,0.0029,0.0033,0.0037,0,0,0,0,0,0.0187,0.0201,0.0192,0.019,0.0172,0.0163,0.0159,0.0138,0.0127,0.0131,0.0103,0.0082,0.0029,0.0031,0.0023,0.0031,-0.0037,-0.0037,-0.0037,0.0027,0.0032,0.0037,0,0,0,0,0,0,0.021,0.0199,0.0188,0.0198,0.0185,0.0158,0.016,0.0145,0.0126,0.0123,0.0085,0.0076,0.0063,0.0037,0.004,0.0015,-0.0008,-0.001,0.0042,0.0047,0.0052,0.0075,0.0008,0,0,0,0,0,0.0218,0.0226,0.0208,0.0215,0.0212,0.0187,0.0181,0.0167,0.0147,0.0138,0.0112,0.0082,0.0057,0.0045,0.0019,0.0008,-0.0025,0.0006,0.0011,0.0015,0.0028,-0.0021,-0.002,-0.0036,-0.0036,-0.0036,0,0,0.0229,0.0223,0.0227,0.022,0.0208,0.0213,0.0183,0.018,0.0187,0.0133,0.0134,0.0097,0.0057,0.0044,0.0036,0.0025,0.0001,0.0015,0.0019,0.003,-0.0021,-0.0019,-0.0018,-0.0036,-0.0036,-0.0036,0,0,0.0257,0.025,0.0268,0.0263,0.0252,0.0236,0.0239,0.0218,0.0212,0.0202,0.0166,0.0138,0.0102,0.0077,0.0058,0.0071,0.0025,0.0059,0.0103,0.0056,0.0057,0.0058,0.0016,0.0013,0.0063,0.0063,0.0063,0,0.0269,0.0291,0.027,0.0287,0.029,0.0252,0.0272,0.026,0.0235,0.0235,0.0212,0.0155,0.0118,0.0104,0.0107,0.0083,0.0049,0.0089,0.0063,0.0063,0.0062,0.0019,0.0015,0.0066,0.0066,0.0066,0.0065,0,0.0312,0.0329,0.0341,0.0348,0.0346,0.0358,0.034,0.0343,0.0323,0.0299,0.028,0.0224,0.0192,0.0171,0.0143,0.0126,0.0101,0.0074,0.0054,0.0068,0.0022,0.0016,0.0071,0.007,0.0069,0.0068,0,0,0.0341,0.0368,0.0372,0.0395,0.0384,0.0392,0.0407,0.0407,0.0424,0.0377,0.0387,0.0326,0.0286,0.0263,0.0217,0.0175,0.0137,0.0131,0.0127,0.0099,0.0035,0.0023,0.0014,0.0103,0.0103,0.0102,0.0004,0,0.0382,0.0435,0.043,0.0476,0.0504,0.0485,0.0507,0.0498,0.0476,0.0474,0.0408,0.0389,0.0323,0.0312,0.0258,0.0172,0.0124,0.0167,0.0018,0.0014,0.0008,0.0008,0.01,-0.0,-0.0002,-0.0003,-0.0004,0,0.0425,0.0459,0.0517,0.0561,0.0571,0.0589,0.0619,0.0637,0.0615,0.0597,0.0553,0.0493,0.0434,0.0374,0.0228,0.0258,0.0158,0.008,0.0074,0.0038,-0.0009,-0.002,-0.0016,-0.0015,-0.0014,-0.0013,-0.0012,0,0.0464,0.0519,0.0572,0.0585,0.0624,0.0655,0.0677,0.0674,0.0708,0.068,0.0685,0.0582,0.055,0.0409,0.0243,0.0236,0.0076,0.0041,-0.0067,-0.007,-0.0059,-0.0059,-0.0065,-0.0065,-0.0065,-0.0064,-0.0064,0,0.0507,0.0553,0.0601,0.0632,0.0714,0.0715,0.0789,0.0797,0.0814,0.0853,0.0756,0.0754,0.0556,0.0438,0.0274,0.0088,0.0092,-0.0055,-0.0094,-0.0029,-0.0025,-0.0064,-0.0062,-0.0068,-0.0067,-0.0066,-0.0066,0,0.054,0.0568,0.0642,0.0704,0.0737,0.0797,0.0886,0.0933,0.0938,0.099,0.0989,0.0885,0.0726,0.0516,0.0286,0.0143,-0.0042,-0.0112,-0.0015,-0.0049,-0.0164,-0.0159,-0.0237,-0.0239,-0.024,-0.0241,-0.0241,0,0.0559,0.0601,0.0703,0.0761,0.0796,0.089,0.0958,0.0999,0.1053,0.1069,0.1096,0.0968,0.0866,0.0545,0.0307,-0.0012,-0.0065,-0.0163,-0.0176,-0.0151,-0.0182,-0.0174,-0.0167,-0.0243,-0.0243,-0.0243,-0.0244,0,0.0598,0.0635,0.0699,0.0825,0.0909,0.1018,0.1115,0.1166,0.1213,0.1216,0.1187,0.1015,0.0835,0.056,0.0309,0.0078,-0.0101,-0.0175,-0.0175,-0.0187,-0.0158,-0.0186,-0.0178,-0.0247,-0.0247,-0.0246,-0.0246,0,0.0628,0.0681,0.077,0.0881,0.0998,0.111,0.116,0.1222,0.1278,0.1285,0.1271,0.1069,0.095,0.0607,0.0379,0.0146,0.0078,-0.0004,-0.0014,-0.0014,0.007,0.0141,0.0116,0,0,0,0,0,0.0653,0.0717,0.0818,0.0943,0.106,0.1138,0.1252,0.1287,0.1332,0.1324,0.1303,0.1132,0.0796,0.0654,0.0419,0.0335,0.0022,0.005,-0.008,-0.0267,-0.0263,-0.0206,0,0,0,0,0,0,0.0669,0.0766,0.0819,0.0977,0.1071,0.1209,0.1288,0.1316,0.1317,0.1319,0.1149,0.1066,0.0741,0.0931,0.0414,0.0343,0.0226,-0.0105,-0.011,-0.0269,-0.0266,-0.0262,-0.0202,0,0,0,0,0]}]]